M I D A S
Marine Information and Data Acquisition System
Tripno 2172 of the Zeeleeuw from 2011-08-26 05:31:22 to 2011-08-26 13:25:08
Back to CruiseResearch ActivitiesStationsMapUnderway DataData graphs

EquipmentUnitsComment
TimeDGPSUTC
LatitudeDGPSDM.mWGS84
LongitudeDGPSDM.mWGS84
TemperatureSBE03/SBE38deg celciusITS90
ConductivitySBE21S/mITS90
SalinitySBE21 Practical Salinity Units
ChlorophylAChelsea fluorimeterg/lCalibrated in Aceton
Missing or incorrect values are displayed as -999
Sea surface data collected by the RV Zeeleeuw from 2011-08-26 05:18:30 to 2011-08-26 13:36:39
Time Latitude Longitude Temperature Conductivity Salinity ChlorophylA
2011-08-26 05:19:35 51°13.635 2°56.018 22.6029 0.009811 0.052317 -3.020363
2011-08-26 05:20:35 51°13.635 2°56.018 22.5894 0.009811 0.052304 -3.020363
2011-08-26 05:21:35 51°13.634 2°56.018 22.6283 0.009811 0.05229 -3.020363
2011-08-26 05:22:38 51°13.646 2°55.962 22.5984 0.009914 0.052756 -3.020363
2011-08-26 05:23:39 51°13.67 2°55.845 22.6474 0.009914 0.05274 -3.020363
2011-08-26 05:24:39 51°13.718 2°55.748 22.6324 0.009914 0.052723 -3.020363
2011-08-26 05:25:39 51°13.789 2°55.679 22.6134 0.009914 0.052708 -3.020363
2011-08-26 05:26:39 51°13.865 2°55.636 22.6465 0.009914 0.052694 -3.020363
2011-08-26 05:27:39 51°13.93 2°55.626 22.6515 0.009914 0.052683 -3.020363
2011-08-26 05:28:38 51°13.961 2°55.638 22.6734 0.009914 0.052673 -3.020363
2011-08-26 05:29:36 51°13.968 2°55.585 22.5371 0.009914 0.052665 -3.020363
2011-08-26 05:30:35 51°14.041 2°55.505 22.6845 0.009914 0.052659 -3.020363
2011-08-26 05:31:36 51°14.176 2°55.378 22.5612 0.009914 0.052654 -3.020363
2011-08-26 05:32:37 51°14.326 2°55.232 22.6813 0.009914 0.052649 -3.020363
2011-08-26 05:33:37 51°14.482 2°55.055 22.5912 0.009914 0.052645 -3.020363
2011-08-26 05:34:36 51°14.628 2°54.821 22.629 0.009914 0.052643 -3.020363
2011-08-26 05:35:36 51°14.8 2°54.622 22.6426 0.009914 0.052641 -3.020363
2011-08-26 05:36:36 51°14.979 2°54.445 22.6518 0.009914 0.052641 -3.020363
2011-08-26 05:37:36 51°15.13 2°54.213 22.6338 0.009914 0.052642 -3.020363
2011-08-26 05:38:36 51°15.287 2°53.998 22.6805 0.009914 0.052644 -3.020363
2011-08-26 05:39:36 51°15.445 2°53.782 22.6666 0.009914 0.052646 -3.020363
2011-08-26 05:40:36 51°15.619 2°53.596 22.6643 0.009914 0.05265 -3.020363
2011-08-26 05:41:36 51°15.787 2°53.401 22.6457 0.009914 0.052655 -3.020363
2011-08-26 05:42:36 51°15.974 2°53.26 22.6519 0.009914 0.05266 -3.020363
2011-08-26 05:43:36 51°16.163 2°53.135 22.6525 0.009914 0.052665 -3.020363
2011-08-26 05:44:36 51°16.349 2°52.994 22.703 0.009914 0.052673 -3.020363
2011-08-26 05:45:36 51°16.54 2°52.881 22.7056 0.009914 0.05268 -3.020363
2011-08-26 05:46:36 51°16.728 2°52.759 22.7032 0.009914 0.05269 -3.020363
2011-08-26 05:47:36 51°16.914 2°52.646 22.7142 0.009914 0.0527 -3.020363
2011-08-26 05:48:36 51°17.103 2°52.545 22.7092 0.009914 0.052711 -3.020363
2011-08-26 05:49:36 51°17.296 2°52.493 22.7479 0.009914 0.052723 -3.020363
2011-08-26 05:50:36 51°17.491 2°52.456 22.7439 0.009914 0.052735 -3.020363
2011-08-26 05:51:36 51°17.685 2°52.459 22.745 0.009914 0.052748 -3.020363
2011-08-26 05:52:36 51°17.875 2°52.502 22.7917 0.009914 0.052763 -3.020363
2011-08-26 05:53:36 51°18.059 2°52.581 22.7598 0.009914 0.052778 -3.020363
2011-08-26 05:54:36 51°18.226 2°52.726 22.8076 0.009914 0.052792 -3.020363
2011-08-26 05:55:36 51°18.386 2°52.888 22.8013 0.009914 0.052806 -3.020363
2011-08-26 05:56:36 51°18.533 2°53.076 22.8153 0.009914 0.052819 -3.020363
2011-08-26 05:57:36 51°18.683 2°53.258 22.8444 0.009914 0.052832 -3.020363
2011-08-26 05:58:36 51°18.842 2°53.419 22.8428 0.009914 0.052846 -3.020363
2011-08-26 05:59:36 51°18.996 2°53.596 22.8459 0.009914 0.052859 -3.020363
2011-08-26 06:00:36 51°19.144 2°53.781 22.8511 0.009811 0.052391 -3.020363
2011-08-26 06:01:36 51°19.299 2°53.953 22.8512 0.009811 0.052405 -3.020363
2011-08-26 06:02:36 51°19.444 2°54.144 22.8888 0.009811 0.052419 -3.020363
2011-08-26 06:03:36 51°19.593 2°54.326 22.8753 0.009811 0.052434 -3.020363
2011-08-26 06:04:36 51°19.75 2°54.489 22.8919 0.009811 0.052449 -3.020363
2011-08-26 06:05:36 51°19.905 2°54.66 22.8633 0.009811 0.052465 -3.020363
2011-08-26 06:06:36 51°20.051 2°54.852 22.8746 0.009811 0.052479 -3.020363
2011-08-26 06:07:36 51°20.197 2°55.045 22.92 0.009811 0.052494 -3.020363
2011-08-26 06:08:36 51°20.353 2°55.22 22.8981 0.009811 0.052511 -3.020363
2011-08-26 06:09:36 51°20.505 2°55.4 22.9276 0.009811 0.052528 -3.020363
2011-08-26 06:10:36 51°20.657 2°55.579 22.9131 0.009811 0.052543 -3.020363
2011-08-26 06:11:36 51°20.805 2°55.765 22.9765 0.009811 0.052559 -3.020363
2011-08-26 06:12:36 51°20.963 2°55.929 22.9786 0.009811 0.052575 -3.020363
2011-08-26 06:13:36 51°21.112 2°56.11 23.013 0.009811 0.05259 -3.020363
2011-08-26 06:14:36 51°21.269 2°56.275 22.9554 0.009811 0.052606 -3.020363
2011-08-26 06:15:36 51°21.412 2°56.464 23.0437 0.009811 0.052621 -3.020363
2011-08-26 06:16:36 51°21.562 2°56.64 23.0124 0.009811 0.052637 -3.020363
2011-08-26 06:17:36 51°21.708 2°56.826 23.009 0.009811 0.052653 -3.020363
2011-08-26 06:18:36 51°21.861 2°56.999 23.0676 0.009811 0.052669 -3.020363
2011-08-26 06:19:36 51°22.009 2°57.178 23.0317 0.009811 0.052684 -3.020363
2011-08-26 06:20:36 51°22.157 2°57.361 23.0723 0.009811 0.0527 -3.020363
2011-08-26 06:21:36 51°22.302 2°57.546 23.1033 0.009811 0.052718 -3.020363
2011-08-26 06:22:36 51°22.456 2°57.715 23.1129 0.009811 0.052736 -3.020363
2011-08-26 06:23:36 51°22.602 2°57.902 23.136 0.009811 0.052754 -3.020363
2011-08-26 06:24:36 51°22.75 2°58.083 23.082 0.009708 0.052283 -3.020363
2011-08-26 06:25:36 51°22.901 2°58.26 23.1452 0.009708 0.0523 -3.020363
2011-08-26 06:26:36 51°23.044 2°58.454 23.1619 0.009708 0.052318 -3.020363
2011-08-26 06:27:36 51°23.197 2°58.625 23.1494 0.009708 0.052335 -3.020363
2011-08-26 06:28:36 51°23.342 2°58.817 23.2056 0.009708 0.052352 -3.020363
2011-08-26 06:29:36 51°23.493 2°58.996 23.1792 0.009708 0.052368 -3.020363
2011-08-26 06:30:36 51°23.644 2°59.17 23.1917 0.009708 0.052384 -3.020363
2011-08-26 06:31:36 51°23.787 2°59.364 23.2317 0.009708 0.052399 -3.020363
2011-08-26 06:32:36 51°23.936 2°59.55 23.2358 0.009708 0.052415 -3.020363
2011-08-26 06:33:36 51°24.081 2°59.747 23.2315 0.009708 0.052431 -3.020363
2011-08-26 06:34:36 51°24.214 2°59.965 23.2507 0.009708 0.052446 -3.020363
2011-08-26 06:35:36 51°24.347 3°0.187 23.2953 0.009708 0.05246 -3.020363
2011-08-26 06:36:36 51°24.489 3°0.395 23.2595 0.009708 0.052473 -3.020363
2011-08-26 06:37:36 51°24.628 3°0.606 23.2768 0.009708 0.052488 -3.020363
2011-08-26 06:38:36 51°24.764 3°0.831 23.2949 0.009708 0.052503 -3.020363
2011-08-26 06:39:36 51°24.899 3°1.054 23.3368 0.009708 0.052519 -3.020363
2011-08-26 06:40:36 51°25.056 3°1.241 23.3111 0.009708 0.052535 -3.020363
2011-08-26 06:41:36 51°25.202 3°1.446 23.3597 0.009708 0.052551 -3.020363
2011-08-26 06:42:36 51°25.353 3°1.632 23.2789 0.009708 0.052567 -3.020363
2011-08-26 06:43:36 51°25.497 3°1.829 23.3741 0.009708 0.052583 -3.020363
2011-08-26 06:44:36 51°25.643 3°2.014 23.3829 0.009708 0.052598 -3.020363
2011-08-26 06:45:36 51°25.783 3°2.206 23.3239 0.009708 0.052614 -3.020363
2011-08-26 06:46:36 51°25.922 3°2.4 23.4296 0.009708 0.052628 -3.020363
2011-08-26 06:47:36 51°26.064 3°2.585 23.4075 0.009708 0.052643 -3.020363
2011-08-26 06:48:36 51°26.202 3°2.778 23.4256 0.009606 0.052163 -3.020363
2011-08-26 06:49:36 51°26.357 3°2.937 23.3967 0.009606 0.052173 -3.020363
2011-08-26 06:50:36 51°26.511 3°3.097 23.4379 0.009606 0.052181 -3.020363
2011-08-26 06:51:36 51°26.662 3°3.268 23.4108 0.009606 0.052185 -3.020363
2011-08-26 06:52:36 51°26.803 3°3.459 23.4186 0.009606 0.052185 -3.020363
2011-08-26 06:53:36 51°26.93 3°3.678 23.4632 0.009606 0.052184 -3.020363
2011-08-26 06:54:36 51°27.065 3°3.887 23.4696 0.009606 0.052182 -3.020363
2011-08-26 06:55:36 51°27.192 3°4.111 23.5252 0.009606 0.05218 -3.020363
2011-08-26 06:56:36 51°27.329 3°4.325 23.4682 0.009606 0.05218 -3.020363
2011-08-26 06:57:36 51°27.458 3°4.554 23.512 0.009606 0.052181 -3.020363
2011-08-26 06:58:36 51°27.594 3°4.77 23.4741 0.009606 0.052183 -3.020363
2011-08-26 06:59:36 51°27.735 3°4.979 23.4968 0.009606 0.052184 -3.020363
2011-08-26 07:00:36 51°27.868 3°5.201 23.525 0.009606 0.052184 -3.020363
2011-08-26 07:01:36 51°28.007 3°5.414 23.528 0.009606 0.052185 -3.020363
2011-08-26 07:02:36 51°28.137 3°5.642 23.5786 0.009606 0.052188 -3.020363
2011-08-26 07:03:36 51°28.276 3°5.856 23.5819 0.009606 0.052191 -3.020363
2011-08-26 07:04:36 51°28.405 3°6.087 23.6041 0.009606 0.052192 -3.020363
2011-08-26 07:05:36 51°28.545 3°6.302 23.6236 0.009606 0.052191 -3.020363
2011-08-26 07:06:36 51°28.694 3°6.496 23.61 0.009606 0.052191 -3.020363
2011-08-26 07:07:36 51°28.856 3°6.672 23.6363 0.009606 0.052192 -3.020363
2011-08-26 07:08:36 51°29.019 3°6.843 23.6918 0.009606 0.052195 -3.020363
2011-08-26 07:09:36 51°29.2 3°6.951 23.5911 0.009606 0.052198 -3.020363
2011-08-26 07:10:36 51°29.383 3°7.057 23.6094 0.009606 0.052203 -3.020363
2011-08-26 07:11:36 51°29.514 3°7.122 23.6864 0.009606 0.052207 -3.020363
2011-08-26 07:12:36 51°29.579 3°7.103 23.6862 0.009606 0.052212 -3.020363
2011-08-26 07:13:36 51°29.618 3°7.072 23.7124 0.009606 0.052218 -3.020363
2011-08-26 07:14:36 51°29.621 3°7.049 23.6606 0.009606 0.052223 -3.020363
2011-08-26 07:15:36 51°29.612 3°7.022 23.6906 0.009606 0.052229 -3.020363
2011-08-26 07:16:36 51°29.597 3°6.996 23.7158 0.009606 0.052235 -3.020363
2011-08-26 07:17:36 51°29.58 3°6.971 23.7358 0.009606 0.052241 -3.020363
2011-08-26 07:18:36 51°29.56 3°6.951 23.7179 0.009606 0.052247 -3.020363
2011-08-26 07:19:36 51°29.546 3°6.926 23.7171 0.009606 0.052251 -3.020363
2011-08-26 07:20:36 51°29.535 3°6.898 23.733 0.009606 0.052253 -3.020363
2011-08-26 07:21:36 51°29.523 3°6.873 23.7812 0.009606 0.052254 -3.020363
2011-08-26 07:22:36 51°29.516 3°6.843 23.761 0.009606 0.052253 -3.020363
2011-08-26 07:23:36 51°29.513 3°6.812 23.7941 0.009606 0.052253 -3.020363
2011-08-26 07:24:36 51°29.501 3°6.792 23.7729 0.009606 0.052252 -3.020363
2011-08-26 07:25:39 51°29.47 3°6.801 23.7443 0.009606 0.05225 -3.020363
2011-08-26 07:26:38 51°29.497 3°6.783 23.7471 0.009606 0.052249 -3.020363
2011-08-26 07:27:36 51°29.515 3°6.839 23.8309 0.009606 0.052249 -3.020363
2011-08-26 07:28:36 51°29.517 3°6.907 23.8447 0.009606 0.052251 -3.020363
2011-08-26 07:29:36 51°29.532 3°6.958 23.8467 0.009606 0.052254 -3.020363
2011-08-26 07:30:36 51°29.536 3°6.951 23.8535 0.009606 0.05226 -3.020363
2011-08-26 07:31:36 51°29.536 3°6.932 23.8472 0.009606 0.052267 -3.020363
2011-08-26 07:32:36 51°29.535 3°6.911 23.8634 0.009606 0.052277 -3.020363
2011-08-26 07:33:36 51°29.535 3°6.893 23.8742 0.009606 0.052287 -3.020363
2011-08-26 07:34:36 51°29.533 3°6.873 23.9334 0.009606 0.052297 -3.020363
2011-08-26 07:35:36 51°29.532 3°6.852 23.8949 0.009606 0.052307 -3.020363
2011-08-26 07:36:36 51°29.53 3°6.829 23.9211 0.009606 0.052319 -3.020363
2011-08-26 07:37:36 51°29.526 3°6.804 23.9227 0.009606 0.052331 -3.020363
2011-08-26 07:38:36 51°29.524 3°6.777 23.926 0.009606 0.052343 -3.020363
2011-08-26 07:39:36 51°29.52 3°6.749 23.9498 0.009606 0.052355 -3.020363
2011-08-26 07:40:36 51°29.517 3°6.721 23.9444 0.009606 0.052368 -3.020363
2011-08-26 07:41:36 51°29.514 3°6.694 23.9264 0.009606 0.052381 -3.020363
2011-08-26 07:42:36 51°29.515 3°6.673 23.9413 0.009606 0.052393 -3.020363
2011-08-26 07:43:36 51°29.518 3°6.656 23.9805 0.009606 0.052406 -3.020363
2011-08-26 07:44:36 51°29.523 3°6.644 23.9813 0.009606 0.052418 -3.020363
2011-08-26 07:45:36 51°29.527 3°6.636 24.0023 0.009606 0.05243 -3.020363
2011-08-26 07:46:36 51°29.531 3°6.629 23.9955 0.009606 0.052442 -3.020363
2011-08-26 07:47:36 51°29.534 3°6.622 24.0277 0.009606 0.052454 -3.020363
2011-08-26 07:48:36 51°29.541 3°6.679 24.0345 0.009606 0.052465 -3.020363
2011-08-26 07:49:36 51°29.534 3°6.753 23.9926 0.009503 0.051977 -3.020363
2011-08-26 07:50:36 51°29.528 3°6.802 24.0484 0.009503 0.051988 -3.020363
2011-08-26 07:51:36 51°29.525 3°6.812 24.0566 0.009503 0.052 -3.020363
2011-08-26 07:52:36 51°29.525 3°6.795 24.0601 0.009503 0.05201 -3.020363
2011-08-26 07:53:36 51°29.525 3°6.778 24.093 0.009503 0.052021 -3.020363
2011-08-26 07:54:36 51°29.562 3°6.758 24.1158 0.009503 0.052032 -3.020363
2011-08-26 07:55:36 51°29.567 3°6.666 24.0955 0.009503 0.052042 -3.020363
2011-08-26 07:56:36 51°29.543 3°6.602 24.1207 0.009503 0.052048 -3.020363
2011-08-26 07:57:36 51°29.482 3°6.588 24.1251 0.009503 0.052053 -3.020363
2011-08-26 07:58:36 51°29.459 3°6.681 24.0651 0.009503 0.052057 -3.020363
2011-08-26 07:59:36 51°29.472 3°6.755 24.0993 0.009503 0.052062 -3.020363
2011-08-26 08:00:36 51°29.477 3°6.767 24.102 0.009503 0.052069 -3.020363
2011-08-26 08:01:36 51°29.481 3°6.759 24.1101 0.009503 0.052075 -3.020363
2011-08-26 08:02:36 51°29.485 3°6.741 24.138 0.009503 0.052081 -3.020363
2011-08-26 08:03:36 51°29.499 3°6.741 24.1107 0.009503 0.052089 -3.020363
2011-08-26 08:04:36 51°29.507 3°6.734 24.153 0.009503 0.052097 -3.020363
2011-08-26 08:05:36 51°29.507 3°6.71 24.138 0.009503 0.052106 -3.020363
2011-08-26 08:06:36 51°29.505 3°6.685 24.1561 0.009503 0.052116 -3.020363
2011-08-26 08:07:36 51°29.508 3°6.663 24.1278 0.009503 0.052127 -3.020363
2011-08-26 08:08:36 51°29.524 3°6.669 24.1774 0.009503 0.052138 -3.020363
2011-08-26 08:09:36 51°29.539 3°6.686 24.1659 0.009503 0.052149 -3.020363
2011-08-26 08:10:36 51°29.548 3°6.699 24.2052 0.009503 0.052159 -3.020363
2011-08-26 08:11:36 51°29.556 3°6.697 24.1952 0.009503 0.052167 -3.020363
2011-08-26 08:12:36 51°29.564 3°6.684 24.2118 0.009503 0.052177 -3.020363
2011-08-26 08:13:36 51°29.582 3°6.72 24.2273 0.009503 0.052187 -3.020363
2011-08-26 08:14:36 51°29.588 3°6.751 24.2254 0.009503 0.052197 -3.020363
2011-08-26 08:15:36 51°29.595 3°6.772 24.2481 0.009503 0.05221 -3.020363
2011-08-26 08:16:36 51°29.603 3°6.78 24.2363 0.009503 0.052225 -3.020363
2011-08-26 08:17:36 51°29.612 3°6.776 24.2533 0.009503 0.05224 -3.020363
2011-08-26 08:18:36 51°29.621 3°6.76 24.2457 0.009503 0.052252 -3.020363
2011-08-26 08:19:36 51°29.62 3°6.736 24.2693 0.009503 0.052261 -3.020363
2011-08-26 08:20:36 51°29.654 3°6.682 24.35 0.009503 0.052274 -3.020363
2011-08-26 08:21:36 51°29.633 3°6.595 24.3389 0.009503 0.052283 -3.020363
2011-08-26 08:22:36 51°29.584 3°6.574 24.3286 0.009503 0.052289 -3.020363
2011-08-26 08:23:36 51°29.549 3°6.597 24.2982 0.009503 0.052294 -3.020363
2011-08-26 08:24:36 51°29.542 3°6.618 24.3032 0.009503 0.052297 -3.020363
2011-08-26 08:25:36 51°29.553 3°6.648 24.2957 0.009503 0.052301 -3.020363
2011-08-26 08:26:36 51°29.562 3°6.68 24.303 0.009503 0.052308 -3.020363
2011-08-26 08:27:36 51°29.572 3°6.699 24.3107 0.009503 0.052312 -3.020363
2011-08-26 08:28:36 51°29.584 3°6.715 24.3058 0.009503 0.052316 -3.020363
2011-08-26 08:29:36 51°29.598 3°6.725 24.3293 0.009503 0.052321 -3.020363
2011-08-26 08:30:36 51°29.611 3°6.726 24.3262 0.009503 0.052326 -3.020363
2011-08-26 08:31:36 51°29.627 3°6.776 24.3609 0.0094 0.051828 -3.020363
2011-08-26 08:32:36 51°29.634 3°6.821 24.3416 0.0094 0.051834 -3.020363
2011-08-26 08:33:36 51°29.644 3°6.844 24.3456 0.0094 0.05184 -3.020363
2011-08-26 08:34:36 51°29.657 3°6.855 24.3787 0.0094 0.051844 -3.020363
2011-08-26 08:35:36 51°29.669 3°6.855 24.3585 0.0094 0.051849 -3.020363
2011-08-26 08:36:36 51°29.679 3°6.849 24.3864 0.0094 0.051856 -3.020363
2011-08-26 08:37:36 51°29.689 3°6.841 24.3784 0.0094 0.051861 -3.020363
2011-08-26 08:38:36 51°29.699 3°6.835 24.3877 0.0094 0.051868 -3.020363
2011-08-26 08:39:36 51°29.71 3°6.831 24.3864 0.0094 0.051875 -3.020363
2011-08-26 08:40:36 51°29.72 3°6.825 24.4037 0.0094 0.051882 -3.020363
2011-08-26 08:41:36 51°29.734 3°6.819 24.433 0.0094 0.051888 -3.020363
2011-08-26 08:42:36 51°29.792 3°6.791 24.4555 0.0094 0.051897 -3.020363
2011-08-26 08:43:36 51°29.778 3°6.698 24.4437 0.0094 0.051903 -3.020363
2011-08-26 08:44:36 51°29.735 3°6.678 24.4485 0.0094 0.051906 -3.020363
2011-08-26 08:45:36 51°29.711 3°6.689 24.4445 0.0094 0.051909 -3.020363
2011-08-26 08:46:36 51°29.705 3°6.694 24.4599 0.0094 0.051911 -3.020363
2011-08-26 08:47:36 51°29.706 3°6.69 24.4742 0.0094 0.051912 -3.020363
2011-08-26 08:48:36 51°29.692 3°6.7 24.4614 0.0094 0.051914 -3.020363
2011-08-26 08:49:36 51°29.688 3°6.719 24.4785 0.0094 0.051915 -3.020363
2011-08-26 08:50:36 51°29.686 3°6.75 24.4873 0.0094 0.051918 -3.020363
2011-08-26 08:51:36 51°29.679 3°6.788 24.4881 0.0094 0.051923 -3.020363
2011-08-26 08:52:36 51°29.681 3°6.809 24.4886 0.0094 0.051929 -3.020363
2011-08-26 08:53:36 51°29.694 3°6.825 24.4738 0.0094 0.051935 -3.020363
2011-08-26 08:54:36 51°29.699 3°6.86 24.5017 0.0094 0.051941 -3.020363
2011-08-26 08:55:36 51°29.703 3°6.887 24.5198 0.0094 0.051947 -3.020363
2011-08-26 08:56:36 51°29.714 3°6.905 24.515 0.0094 0.051953 -3.020363
2011-08-26 08:57:36 51°29.721 3°6.928 24.5249 0.0094 0.051959 -3.020363
2011-08-26 08:58:36 51°29.725 3°6.951 24.5205 0.0094 0.051965 -3.020363
2011-08-26 08:59:36 51°29.733 3°6.961 24.5504 0.0094 0.05197 -3.020363
2011-08-26 09:00:36 51°29.754 3°6.963 24.554 0.0094 0.051974 -3.020363
2011-08-26 09:01:36 51°29.772 3°6.966 24.5852 0.0094 0.051977 -3.020363
2011-08-26 09:02:36 51°29.743 3°6.945 24.5602 0.0094 0.051979 -3.020363
2011-08-26 09:03:36 51°29.691 3°6.941 24.5426 0.0094 0.051981 -3.020363
2011-08-26 09:04:36 51°29.672 3°6.937 24.5671 0.0094 0.051983 -3.020363
2011-08-26 09:05:36 51°29.673 3°6.933 24.5764 0.0094 0.051985 -3.020363
2011-08-26 09:06:36 51°29.682 3°6.929 24.5872 0.0094 0.051987 -3.020363
2011-08-26 09:07:36 51°29.676 3°6.919 24.5705 0.0094 0.051988 -3.020363
2011-08-26 09:08:36 51°29.678 3°6.917 24.5695 0.0094 0.05199 -3.020363
2011-08-26 09:09:36 51°29.684 3°6.91 24.6027 0.0094 0.051992 -3.020363
2011-08-26 09:10:36 51°29.68 3°6.904 24.601 0.0094 0.051995 -3.020363
2011-08-26 09:11:36 51°29.676 3°6.907 24.5796 0.0094 0.051997 -3.020363
2011-08-26 09:12:36 51°29.689 3°6.912 24.593 0.0094 0.051999 -3.020363
2011-08-26 09:13:36 51°29.698 3°6.906 24.5916 0.0094 0.052001 -3.020363
2011-08-26 09:14:36 51°29.692 3°6.9 24.5816 0.0094 0.052002 -3.020363
2011-08-26 09:15:36 51°29.688 3°6.903 24.6082 0.0094 0.052005 -3.020363
2011-08-26 09:16:36 51°29.685 3°6.914 24.6098 0.0094 0.052007 -3.020363
2011-08-26 09:17:36 51°29.69 3°6.927 24.6099 0.0094 0.052009 -3.020363
2011-08-26 09:18:36 51°29.704 3°6.937 24.6092 0.0094 0.052011 -3.020363
2011-08-26 09:19:36 51°29.723 3°6.949 24.6245 0.0094 0.052013 -3.020363
2011-08-26 09:20:36 51°29.748 3°6.964 24.6283 0.0094 0.052015 -3.020363
2011-08-26 09:21:36 51°29.773 3°6.986 24.6216 0.0094 0.052017 -3.020363
2011-08-26 09:22:36 51°29.795 3°7.009 24.6215 0.0094 0.052018 -3.020363
2011-08-26 09:23:36 51°29.814 3°7.029 24.6493 0.0094 0.05202 -3.020363
2011-08-26 09:24:36 51°29.823 3°7.002 24.6868 0.0094 0.052022 -3.020363
2011-08-26 09:25:36 51°29.772 3°6.989 24.6455 0.0094 0.052023 -3.020363
2011-08-26 09:26:36 51°29.719 3°7.017 24.6367 0.0094 0.052024 -3.020363
2011-08-26 09:27:36 51°29.695 3°7.036 24.6684 0.0094 0.052026 -3.020363
2011-08-26 09:28:36 51°29.688 3°7.055 24.6628 0.0094 0.052027 -3.020363
2011-08-26 09:29:36 51°29.699 3°7.071 24.6804 0.0094 0.05203 -3.020363
2011-08-26 09:30:36 51°29.721 3°7.09 24.6865 0.0094 0.052032 -3.020363
2011-08-26 09:31:36 51°29.745 3°7.113 24.6865 0.0094 0.052034 -3.020363
2011-08-26 09:32:36 51°29.756 3°7.105 24.6999 0.0094 0.052037 -3.020363
2011-08-26 09:33:36 51°29.754 3°7.095 24.6898 0.0094 0.052039 -3.020363
2011-08-26 09:34:36 51°29.753 3°7.1 24.6994 0.0094 0.052041 -3.020363
2011-08-26 09:35:36 51°29.753 3°7.116 24.6984 0.0094 0.052043 -3.020363
2011-08-26 09:36:36 51°29.752 3°7.137 24.7008 0.0094 0.052045 -3.020363
2011-08-26 09:37:36 51°29.749 3°7.155 24.7046 0.0094 0.052048 -3.020363
2011-08-26 09:38:36 51°29.746 3°7.172 24.7224 0.0094 0.05205 -3.020363
2011-08-26 09:39:36 51°29.745 3°7.187 24.7226 0.0094 0.052053 -3.020363
2011-08-26 09:40:36 51°29.749 3°7.204 24.7235 0.0094 0.052055 -3.020363
2011-08-26 09:41:36 51°29.755 3°7.226 24.7281 0.0094 0.052058 -3.020363
2011-08-26 09:42:36 51°29.766 3°7.247 24.7111 0.0094 0.052061 -3.020363
2011-08-26 09:43:36 51°29.783 3°7.274 24.7335 0.0094 0.052063 -3.020363
2011-08-26 09:44:36 51°29.798 3°7.306 24.7379 0.0094 0.052065 -3.020363
2011-08-26 09:45:36 51°29.802 3°7.348 24.7363 0.0094 0.052068 -3.020363
2011-08-26 09:46:36 51°29.789 3°7.381 24.731 0.0094 0.05207 -3.020363
2011-08-26 09:47:36 51°29.782 3°7.38 24.771 0.0094 0.052072 -3.020363
2011-08-26 09:48:36 51°29.792 3°7.377 24.7621 0.0094 0.052075 -3.020363
2011-08-26 09:49:36 51°29.806 3°7.377 24.7569 0.0094 0.052078 -3.020363
2011-08-26 09:50:36 51°29.812 3°7.335 24.7549 0.0094 0.05208 -3.020363
2011-08-26 09:51:36 51°29.811 3°7.273 24.7739 0.0094 0.052083 -3.020363
2011-08-26 09:52:36 51°29.814 3°7.227 24.7823 0.0094 0.052086 -3.020363
2011-08-26 09:53:36 51°29.817 3°7.196 24.8171 0.0094 0.052087 -3.020363
2011-08-26 09:54:36 51°29.786 3°7.212 24.7806 0.0094 0.05209 -3.020363
2011-08-26 09:55:36 51°29.782 3°7.307 24.7614 0.0094 0.052092 -3.020363
2011-08-26 09:56:36 51°29.794 3°7.4 24.7639 0.0094 0.052096 -3.020363
2011-08-26 09:57:36 51°29.806 3°7.482 24.753 0.0094 0.052101 -3.020363
2011-08-26 09:58:36 51°29.787 3°7.56 24.7763 0.0094 0.052106 -3.020363
2011-08-26 09:59:36 51°29.746 3°7.548 24.8387 0.0094 0.052111 -3.020363
2011-08-26 10:00:36 51°29.655 3°7.476 24.8118 0.0094 0.052114 -3.020363
2011-08-26 10:01:36 51°29.56 3°7.376 24.8005 0.0094 0.052114 -3.020363
2011-08-26 10:02:36 51°29.483 3°7.246 24.8068 0.0094 0.052113 -3.020363
2011-08-26 10:03:36 51°29.425 3°7.122 24.8167 0.0094 0.052109 -3.020363
2011-08-26 10:04:36 51°29.387 3°7.092 24.8126 0.0094 0.052104 -3.020363
2011-08-26 10:05:36 51°29.39 3°7.107 24.8378 0.0094 0.052097 -3.020363
2011-08-26 10:06:36 51°29.413 3°7.134 24.8316 0.0094 0.05209 -3.020363
2011-08-26 10:07:36 51°29.433 3°7.158 24.8397 0.0094 0.052082 -3.020363
2011-08-26 10:08:36 51°29.437 3°7.155 24.8344 0.0094 0.052073 -3.020363
2011-08-26 10:09:36 51°29.438 3°7.155 24.8427 0.0094 0.052064 -3.020363
2011-08-26 10:10:36 51°29.437 3°7.159 24.8487 0.0094 0.052053 -3.020363
2011-08-26 10:11:36 51°29.436 3°7.16 24.8293 0.0094 0.052043 -3.020363
2011-08-26 10:12:36 51°29.437 3°7.16 24.8498 0.0094 0.052032 -3.020363
2011-08-26 10:13:36 51°29.436 3°7.162 24.8483 0.0094 0.05202 -3.020363
2011-08-26 10:14:36 51°29.436 3°7.161 24.8648 0.0094 0.052008 -3.020363
2011-08-26 10:15:36 51°29.437 3°7.159 24.8415 0.0094 0.051997 -3.020363
2011-08-26 10:16:36 51°29.436 3°7.159 24.8575 0.0094 0.051986 -3.020363
2011-08-26 10:17:36 51°29.437 3°7.158 24.8564 0.0094 0.051976 -3.020363
2011-08-26 10:18:36 51°29.436 3°7.159 24.8418 0.0094 0.051968 -3.020363
2011-08-26 10:19:36 51°29.435 3°7.162 24.8536 0.0094 0.051959 -3.020363
2011-08-26 10:20:36 51°29.434 3°7.162 24.8708 0.0094 0.051952 -3.020363
2011-08-26 10:21:36 51°29.435 3°7.16 24.8521 0.0094 0.051946 -3.020363
2011-08-26 10:22:36 51°29.437 3°7.156 24.8559 0.0094 0.051941 -3.020363
2011-08-26 10:23:36 51°29.438 3°7.154 24.8592 0.0094 0.051935 -3.020363
2011-08-26 10:24:36 51°29.438 3°7.15 24.8673 0.0094 0.051931 -3.020363
2011-08-26 10:25:36 51°29.438 3°7.153 24.8563 0.0094 0.051926 -3.020363
2011-08-26 10:26:36 51°29.437 3°7.157 24.8707 0.0094 0.051923 -3.020363
2011-08-26 10:27:36 51°29.435 3°7.159 24.8751 0.0094 0.05192 -3.020363
2011-08-26 10:28:36 51°29.436 3°7.157 24.8668 0.0094 0.051918 -3.020363
2011-08-26 10:29:36 51°29.437 3°7.157 24.8634 0.0094 0.051916 -3.020363
2011-08-26 10:30:36 51°29.439 3°7.155 24.872 0.0094 0.051915 -3.020363
2011-08-26 10:31:36 51°29.439 3°7.154 24.881 0.0094 0.051914 -3.020363
2011-08-26 10:32:36 51°29.437 3°7.157 24.8748 0.0094 0.051912 -3.020363
2011-08-26 10:33:36 51°29.435 3°7.164 24.8739 0.0094 0.051912 -3.020363
2011-08-26 10:34:36 51°29.433 3°7.167 24.8725 0.0094 0.051911 -3.020363
2011-08-26 10:35:36 51°29.435 3°7.164 24.8724 0.0094 0.051911 -3.020363
2011-08-26 10:36:36 51°29.438 3°7.159 24.8887 0.0094 0.051911 -3.020363
2011-08-26 10:37:36 51°29.439 3°7.156 24.8845 0.0094 0.051911 -3.020363
2011-08-26 10:38:36 51°29.44 3°7.153 24.8755 0.0094 0.051911 -3.020363
2011-08-26 10:39:36 51°29.438 3°7.156 24.8773 0.0094 0.051912 -3.020363
2011-08-26 10:40:36 51°29.437 3°7.159 24.8834 0.0094 0.051912 -3.020363
2011-08-26 10:41:36 51°29.436 3°7.159 24.8843 0.0094 0.051912 -3.020363
2011-08-26 10:42:36 51°29.436 3°7.161 24.8628 0.0094 0.051913 -3.020363
2011-08-26 10:43:36 51°29.435 3°7.163 24.8922 0.0094 0.051914 -3.020363
2011-08-26 10:44:36 51°29.434 3°7.163 24.8811 0.0094 0.051915 -3.020363
2011-08-26 10:45:36 51°29.434 3°7.164 24.8787 0.0094 0.051916 -3.020363
2011-08-26 10:46:36 51°29.435 3°7.162 24.8898 0.0094 0.051917 -3.020363
2011-08-26 10:47:36 51°29.436 3°7.158 24.8864 0.0094 0.051918 -3.020363
2011-08-26 10:48:36 51°29.438 3°7.156 24.8954 0.0094 0.051919 -3.020363
2011-08-26 10:49:36 51°29.438 3°7.158 24.8895 0.0094 0.051919 -3.020363
2011-08-26 10:50:36 51°29.438 3°7.157 24.8931 0.0094 0.051921 -3.020363
2011-08-26 10:51:36 51°29.438 3°7.154 24.8745 0.0094 0.051922 -3.020363
2011-08-26 10:52:36 51°29.438 3°7.155 24.8798 0.0094 0.051923 -3.020363
2011-08-26 10:53:36 51°29.436 3°7.159 24.892 0.0094 0.051924 -3.020363
2011-08-26 10:54:36 51°29.433 3°7.164 24.8818 0.0094 0.051924 -3.020363
2011-08-26 10:55:36 51°29.433 3°7.166 24.8945 0.0094 0.051925 -3.020363
2011-08-26 10:56:36 51°29.433 3°7.166 24.8709 0.0094 0.051926 -3.020363
2011-08-26 10:57:36 51°29.432 3°7.166 24.8733 0.0094 0.051927 -3.020363
2011-08-26 10:58:36 51°29.433 3°7.163 24.8993 0.0094 0.051928 -3.020363
2011-08-26 10:59:36 51°29.435 3°7.16 24.8927 0.0094 0.051929 -3.020363
2011-08-26 11:00:36 51°29.435 3°7.161 24.889 0.0094 0.051929 -3.020363
2011-08-26 11:01:36 51°29.435 3°7.162 24.8978 0.0094 0.05193 -3.020363
2011-08-26 11:02:36 51°29.433 3°7.166 24.8976 0.0094 0.051931 -3.020363
2011-08-26 11:03:36 51°29.432 3°7.167 24.9 0.0094 0.051931 -3.020363
2011-08-26 11:04:36 51°29.432 3°7.166 24.8944 0.0094 0.051932 -3.020363
2011-08-26 11:05:36 51°29.433 3°7.164 24.8997 0.0094 0.051932 -3.020363
2011-08-26 11:06:36 51°29.436 3°7.161 24.8915 0.0094 0.051934 -3.020363
2011-08-26 11:07:36 51°29.436 3°7.158 24.8915 0.0094 0.051934 -3.020363
2011-08-26 11:08:36 51°29.435 3°7.161 24.8854 0.0094 0.051935 -3.020363
2011-08-26 11:09:36 51°29.429 3°7.159 24.9025 0.0094 0.051935 -3.020363
2011-08-26 11:10:36 51°29.424 3°7.154 24.901 0.0094 0.051936 -3.020363
2011-08-26 11:11:36 51°29.419 3°7.147 24.8996 0.0094 0.051938 -3.020363
2011-08-26 11:12:36 51°29.415 3°7.137 24.8969 0.0094 0.051938 -3.020363
2011-08-26 11:13:36 51°29.41 3°7.124 24.8951 0.0094 0.051939 -3.020363
2011-08-26 11:14:36 51°29.413 3°7.128 24.8993 0.0094 0.05194 -3.020363
2011-08-26 11:15:36 51°29.437 3°7.145 24.8994 0.0094 0.051942 -3.020363
2011-08-26 11:16:36 51°29.46 3°7.114 24.9263 0.0094 0.051942 -3.020363
2011-08-26 11:17:36 51°29.462 3°6.936 24.9017 0.0094 0.051944 -3.020363
2011-08-26 11:18:36 51°29.515 3°6.728 24.9013 0.0094 0.051945 -3.020363
2011-08-26 11:19:36 51°29.649 3°6.738 24.9057 0.0094 0.051946 -3.020363
2011-08-26 11:20:36 51°29.697 3°6.855 24.9091 0.0094 0.051948 -3.020363
2011-08-26 11:21:36 51°29.718 3°6.939 24.9096 0.0094 0.051951 -3.020363
2011-08-26 11:22:36 51°29.739 3°7.001 24.9048 0.0094 0.051955 -3.020363
2011-08-26 11:23:36 51°29.762 3°7.053 24.9062 0.0094 0.051959 -3.020363
2011-08-26 11:24:36 51°29.774 3°7.117 24.8928 0.0094 0.051966 -3.020363
2011-08-26 11:25:36 51°29.731 3°7.128 24.9424 0.0094 0.051972 -3.020363
2011-08-26 11:26:36 51°29.667 3°7.079 24.9351 0.0094 0.051978 -3.020363
2011-08-26 11:27:36 51°29.627 3°7.052 24.9359 0.0094 0.051984 -3.020363
2011-08-26 11:28:37 51°29.621 3°7.046 24.9579 0.0094 0.051988 -3.020363
2011-08-26 11:29:37 51°29.619 3°7.058 24.9252 0.0094 0.051992 -3.020363
2011-08-26 11:30:36 51°29.601 3°7.065 24.9487 0.0094 0.051995 -3.020363
2011-08-26 11:31:36 51°29.584 3°7.078 24.9401 0.0094 0.051998 -3.020363
2011-08-26 11:32:36 51°29.592 3°7.12 24.9397 0.0094 0.052001 -3.020363
2011-08-26 11:33:36 51°29.619 3°7.166 24.9417 0.0094 0.052005 -3.020363
2011-08-26 11:34:36 51°29.649 3°7.207 24.9437 0.0094 0.052009 -3.020363
2011-08-26 11:35:37 51°29.679 3°7.258 24.952 0.0094 0.052014 -3.020363
2011-08-26 11:36:36 51°29.693 3°7.334 24.9513 0.0094 0.052021 -3.020363
2011-08-26 11:37:36 51°29.708 3°7.394 24.9369 0.0094 0.052028 -3.020363
2011-08-26 11:38:36 51°29.729 3°7.443 24.9478 0.0094 0.052036 -3.020363
2011-08-26 11:39:36 51°29.754 3°7.489 24.9456 0.0094 0.052044 -3.020363
2011-08-26 11:40:36 51°29.781 3°7.535 24.941 0.0094 0.052053 -3.020363
2011-08-26 11:41:36 51°29.807 3°7.583 24.9669 0.0094 0.052062 -3.020363
2011-08-26 11:42:36 51°29.834 3°7.626 24.951 0.0094 0.052072 -3.020363
2011-08-26 11:43:36 51°29.834 3°7.691 24.9415 0.0094 0.052081 -3.020363
2011-08-26 11:44:36 51°29.794 3°7.697 24.9904 0.0094 0.05209 -3.020363
2011-08-26 11:45:36 51°29.691 3°7.559 24.9746 0.0094 0.052097 -3.020363
2011-08-26 11:46:37 51°29.557 3°7.363 24.9768 0.0094 0.052104 -3.020363
2011-08-26 11:47:36 51°29.429 3°7.167 24.9834 0.0094 0.052108 -3.020363
2011-08-26 11:48:36 51°29.295 3°6.976 24.9883 0.0094 0.052112 -3.020363
2011-08-26 11:49:36 51°29.156 3°6.794 24.9672 0.0094 0.052115 -3.020363
2011-08-26 11:50:36 51°29.016 3°6.61 24.9956 0.0094 0.052118 -3.020363
2011-08-26 11:51:36 51°28.876 3°6.425 24.9862 0.0094 0.05212 -3.020363
2011-08-26 11:52:36 51°28.737 3°6.239 24.9838 0.0094 0.052122 -3.020363
2011-08-26 11:53:36 51°28.596 3°6.054 24.9858 0.0094 0.052124 -3.020363
2011-08-26 11:54:36 51°28.459 3°5.861 24.9967 0.0094 0.052124 -3.020363
2011-08-26 11:55:36 51°28.316 3°5.684 24.9962 0.0094 0.052124 -3.020363
2011-08-26 11:56:37 51°28.177 3°5.492 24.9991 0.0094 0.052122 -3.020363
2011-08-26 11:57:36 51°28.035 3°5.319 25.0024 0.0094 0.05212 -3.020363
2011-08-26 11:58:36 51°27.893 3°5.136 25.0064 0.0094 0.052117 -3.020363
2011-08-26 11:59:36 51°27.756 3°4.945 25.0179 0.0094 0.052114 -3.020363
2011-08-26 12:00:36 51°27.609 3°4.77 24.9901 0.0094 0.052109 -3.020363
2011-08-26 12:01:36 51°27.466 3°4.589 25.0137 0.0094 0.052104 -3.020363
2011-08-26 12:02:36 51°27.32 3°4.41 25.0025 0.0094 0.052098 -3.020363
2011-08-26 12:03:36 51°27.173 3°4.228 25.0224 0.0094 0.052093 -3.020363
2011-08-26 12:04:36 51°27.033 3°4.045 24.9995 0.0094 0.052086 -3.020363
2011-08-26 12:05:36 51°26.886 3°3.873 25.0258 0.0094 0.052078 -3.020363
2011-08-26 12:06:36 51°26.741 3°3.695 25.0055 0.0094 0.05207 -3.020363
2011-08-26 12:07:37 51°26.598 3°3.51 25.0223 0.0094 0.052062 -3.020363
2011-08-26 12:08:36 51°26.454 3°3.341 25.0159 0.0094 0.052054 -3.020363
2011-08-26 12:09:36 51°26.316 3°3.157 25.0403 0.0094 0.052046 -3.020363
2011-08-26 12:10:36 51°26.174 3°2.975 25.0374 0.0094 0.05204 -3.020363
2011-08-26 12:11:36 51°26.033 3°2.793 25.0413 0.0094 0.052035 -3.020363
2011-08-26 12:12:37 51°25.885 3°2.621 25.0386 0.0094 0.052031 -3.020363
2011-08-26 12:13:36 51°25.744 3°2.451 25.0253 0.0094 0.052028 -3.020363
2011-08-26 12:14:36 51°25.605 3°2.274 25.0531 0.0094 0.052026 -3.020363
2011-08-26 12:15:36 51°25.459 3°2.103 25.055 0.0094 0.052024 -3.020363
2011-08-26 12:16:36 51°25.318 3°1.921 25.0645 0.0094 0.052024 -3.020363
2011-08-26 12:17:36 51°25.17 3°1.746 25.0377 0.0094 0.052024 -3.020363
2011-08-26 12:18:36 51°25.035 3°1.545 25.0552 0.0094 0.052024 -3.020363
2011-08-26 12:19:36 51°24.906 3°1.339 25.0582 0.0094 0.052025 -3.020363
2011-08-26 12:20:36 51°24.768 3°1.145 25.0625 0.0094 0.052026 -3.020363
2011-08-26 12:21:36 51°24.632 3°0.941 25.0687 0.0094 0.052027 -3.020363
2011-08-26 12:22:36 51°24.5 3°0.735 25.0662 0.0094 0.052028 -3.020363
2011-08-26 12:23:37 51°24.359 3°0.539 25.083 0.0094 0.052029 -3.020363
2011-08-26 12:24:36 51°24.226 3°0.342 25.0823 0.0094 0.052029 -3.020363
2011-08-26 12:25:36 51°24.092 3°0.141 25.0938 0.0094 0.05203 -3.020363
2011-08-26 12:26:36 51°23.955 2°59.945 25.0923 0.0094 0.052031 -3.020363
2011-08-26 12:27:36 51°23.824 2°59.741 25.1038 0.0094 0.052033 -3.020363
2011-08-26 12:28:36 51°23.687 2°59.543 25.074 0.0094 0.052033 -3.020363
2011-08-26 12:29:36 51°23.549 2°59.342 25.1036 0.0094 0.052035 -3.020363
2011-08-26 12:30:36 51°23.409 2°59.149 25.1014 0.0094 0.052036 -3.020363
2011-08-26 12:31:36 51°23.273 2°58.948 25.0868 0.0094 0.052039 -3.020363
2011-08-26 12:32:36 51°23.14 2°58.742 25.1091 0.0094 0.05204 -3.020363
2011-08-26 12:33:36 51°23.001 2°58.545 25.1164 0.0094 0.052043 -3.020363
2011-08-26 12:34:37 51°22.848 2°58.366 25.0996 0.0094 0.052045 -3.020363
2011-08-26 12:35:36 51°22.711 2°58.175 25.117 0.0094 0.052047 -3.020363
2011-08-26 12:36:36 51°22.565 2°57.988 25.1334 0.0094 0.052049 -3.020363
2011-08-26 12:37:36 51°22.421 2°57.795 25.111 0.0094 0.052052 -3.020363
2011-08-26 12:38:36 51°22.28 2°57.597 25.127 0.0094 0.052055 -3.020363
2011-08-26 12:39:36 51°22.133 2°57.412 25.1212 0.0094 0.052059 -3.020363
2011-08-26 12:40:36 51°21.992 2°57.213 25.1225 0.0094 0.052062 -3.020363
2011-08-26 12:41:36 51°21.851 2°57.013 25.1306 0.0094 0.052065 -3.020363
2011-08-26 12:42:36 51°21.703 2°56.827 25.1101 0.0094 0.052069 -3.020363
2011-08-26 12:43:36 51°21.563 2°56.619 25.1609 0.0094 0.052072 -3.020363
2011-08-26 12:44:36 51°21.415 2°56.427 25.1281 0.0094 0.052076 -3.020363
2011-08-26 12:45:36 51°21.267 2°56.232 25.1461 0.0094 0.05208 -3.020363
2011-08-26 12:46:37 51°21.123 2°56.023 25.1357 0.0094 0.052084 -3.020363
2011-08-26 12:47:37 51°20.969 2°55.84 25.1134 0.0094 0.05209 -3.020363
2011-08-26 12:48:36 51°20.818 2°55.66 25.1608 0.0094 0.052096 -3.020363
2011-08-26 12:49:36 51°20.666 2°55.471 25.1534 0.0094 0.052104 -3.020363
2011-08-26 12:50:36 51°20.51 2°55.29 25.1399 0.0094 0.052112 -3.020363
2011-08-26 12:51:36 51°20.357 2°55.1 25.1714 0.0094 0.052121 -3.020363
2011-08-26 12:52:36 51°20.203 2°54.912 25.1418 0.0094 0.05213 -3.020363
2011-08-26 12:53:36 51°20.047 2°54.73 25.1536 0.0094 0.052139 -3.020363
2011-08-26 12:54:36 51°19.895 2°54.537 25.1771 0.0094 0.052149 -3.020363
2011-08-26 12:55:36 51°19.737 2°54.356 25.1366 0.0094 0.052158 -3.020363
2011-08-26 12:56:36 51°19.585 2°54.163 25.1569 0.0094 0.052168 -3.020363
2011-08-26 12:57:36 51°19.428 2°53.98 25.1997 0.0094 0.052178 -3.020363
2011-08-26 12:58:36 51°19.268 2°53.801 25.1845 0.0094 0.052188 -3.020363
2011-08-26 12:59:36 51°19.119 2°53.601 25.1635 0.0094 0.052198 -3.020363
2011-08-26 13:00:36 51°18.959 2°53.42 25.175 0.0094 0.052207 -3.020363
2011-08-26 13:01:36 51°18.805 2°53.231 25.1804 0.0094 0.052218 -3.020363
2011-08-26 13:02:36 51°18.65 2°53.04 25.1772 0.0094 0.052228 -3.020363
2011-08-26 13:03:36 51°18.486 2°52.872 25.1839 0.0094 0.052238 -3.020363
2011-08-26 13:04:36 51°18.312 2°52.722 25.1986 0.0094 0.052248 -3.020363
2011-08-26 13:05:36 51°18.131 2°52.603 25.1902 0.0094 0.052257 -3.020363
2011-08-26 13:06:36 51°17.942 2°52.518 25.213 0.0094 0.052266 -3.020363
2011-08-26 13:07:36 51°17.744 2°52.493 25.2109 0.0094 0.052273 -3.020363
2011-08-26 13:08:36 51°17.545 2°52.464 25.2173 0.0094 0.05228 -3.020363
2011-08-26 13:09:36 51°17.346 2°52.471 25.2402 0.0094 0.052286 -3.020363
2011-08-26 13:10:36 51°17.151 2°52.55 25.2317 0.0094 0.052291 -3.020363
2011-08-26 13:11:36 51°16.965 2°52.682 25.2753 0.0094 0.052298 -3.020363
2011-08-26 13:12:36 51°16.779 2°52.811 25.2535 0.0094 0.052304 -3.020363
2011-08-26 13:13:36 51°16.592 2°52.944 25.2271 0.0094 0.052309 -3.020363
2011-08-26 13:14:36 51°16.41 2°53.091 25.2414 0.0094 0.052315 -3.020363
2011-08-26 13:15:36 51°16.221 2°53.227 25.2574 0.0094 0.052321 -3.020363
2011-08-26 13:16:36 51°16.034 2°53.359 25.2452 0.0094 0.052326 -3.020363
2011-08-26 13:17:36 51°15.85 2°53.508 25.2875 0.0094 0.052332 -3.020363
2011-08-26 13:18:36 51°15.682 2°53.704 25.2852 0.0094 0.052337 -3.020363
2011-08-26 13:19:36 51°15.516 2°53.902 25.3008 0.0094 0.052342 -3.020363
2011-08-26 13:20:36 51°15.353 2°54.094 25.272 0.0094 0.052346 -3.020363
2011-08-26 13:21:36 51°15.195 2°54.278 25.2769 0.009297 0.051839 -3.020363
2011-08-26 13:22:36 51°15.033 2°54.471 25.3308 0.009297 0.051844 -3.020363
2011-08-26 13:23:36 51°14.888 2°54.65 25.2454 0.009297 0.051848 -3.020363
2011-08-26 13:24:36 51°14.738 2°54.826 25.32 0.009297 0.051851 -3.020363
2011-08-26 13:25:36 51°14.583 2°54.999 25.3034 0.009297 0.051854 -3.020363
2011-08-26 13:26:35 51°14.425 2°55.152 25.2827 0.009297 0.051858 -3.020363
2011-08-26 13:27:36 51°14.281 2°55.292 25.322 0.009297 0.051861 -3.020363
2011-08-26 13:28:36 51°14.156 2°55.401 25.3193 0.009297 0.051864 -3.020363
2011-08-26 13:29:40 51°14.027 2°55.494 25.3195 0.009297 0.051867 -3.020363
2011-08-26 13:30:39 51°13.93 2°55.559 25.3365 0.009297 0.05187 -3.020363
2011-08-26 13:31:38 51°13.837 2°55.625 25.3336 0.009297 0.051873 -3.020363
2011-08-26 13:32:39 51°13.756 2°55.713 25.3397 0.009297 0.051875 -3.020363
2011-08-26 13:33:38 51°13.698 2°55.819 25.3262 0.009297 0.051876 -3.020363
2011-08-26 13:34:37 51°13.662 2°55.912 25.3386 0.009297 0.051878 -3.020363
2011-08-26 13:35:36 51°13.642 2°55.989 25.3371 0.009297 0.051879 -3.020363